Location: Ernsee
(50.8780°N, 12.0389°E)
Time: 09:12:33
(UTC+00:00)

Cosmos 1328 - Pass Details

Date: 20 January 2020
Orbit: 535 x 549 km, 82.5° (Epoch: 17 February)

Event Time Altitude Azimuth Distance (km) Brightness Sun altitude
Exits shadow 05:50:30 - 337° (NNW) 2,169 6.5 -11.3°
Reaches altitude 10° 05:51:25 10° 333° (NNW) 1,824 6.1 -11.2°
Maximum altitude 05:55:01 33° 269° (W) 935 4.5 -10.7°
Drops below altitude 10° 05:58:34 10° 205° (SSW) 1,801 6.4 -10.1°
Sets 06:00:51 0° 195° (SSW) 2,685 7.4 -9.8°
